sat.trackr.live / text

‹ back to catalog

ONEWEB-0591

NORAD 54657 · 2022-166R

PAYLOAD ACTIVE UNKNOWN

§ Identity

Operator
Country
UK
Launch date
2022-12-08
Launch site
AFETR
Launch vehicle
Mass (kg)
RCS (m²)

Purposes: comms

External: N2YO · Heavens-Above · Gunter

§ Orbital elements

Epoch: 2026-05-25T05:19:51.852288Z

Period
108.94 min
Inclination
87.9251°
Eccentricity
0.0002018
Mean motion
13.21824865 rev/d
Perigee alt
1,176.2 km
Apogee alt
1,179.3 km
Semi-major
7,555.9 km
B*
1.5594e-4
RAAN
248.5556°
Arg perigee
102.0816°
Mean anomaly
258.0544°
Rev number
16,852

§ Raw data

ONEWEB-05911 54657U 22166R   26145.22212792  .00000077  00000+0  15594-3 0  99992 54657  87.9251 248.5556 0002018 102.0816 258.0544 13.21824865168525

JSON: /api/v1/satellites/54657 · /tle

For live sub-satellite position, see the globe view (requires WebGL).

§ Visibility from observer

Set your observer location to see the next 7 days of passes ≥ 10°. The values pass through the URL so the page stays shareable.

No JS? Fill the form by hand. The geolocation button needs JavaScript.